This is the latest recevied weather packets stored in our database for station/object K5KVN. If no packets are shown the sender has not sent any weather packets the latest 10 day(s).
| Time | Temp. | Humidity | Pressure | Rain* | Wind** | Luminosity | Snow |
|---|---|---|---|---|---|---|---|
| 1787703965 | 32.78° C | 63% | 1014.5 hPa | 0 mm | - | - | - |
| 1787703367 | 32.78° C | 57% | 1014.5 hPa | 0 mm | - | - | - |
| 1787702766 | 33.33° C | 56% | 1014.6 hPa | 0 mm | - | - | - |
| 1787702166 | 33.89° C | 55% | 1014.7 hPa | 0 mm | - | - | - |
| 1787701624 | 35° C | 53% | 1014.7 hPa | 0 mm | - | - | - |
| 1787701023 | 35.56° C | 52% | 1014.7 hPa | 0 mm | - | - | - |
| 1787700361 | 35° C | 53% | 1014.7 hPa | 0 mm | - | - | - |
| 1787699762 | 35° C | 48% | 1014.7 hPa | 0 mm | - | - | - |
| 1787699161 | 35° C | 50% | 1014.8 hPa | 0 mm | - | - | - |
| 1787698558 | 35.56° C | 50% | 1014.5 hPa | 0 mm | - | - | - |
| 1787697961 | 36.11° C | 50% | 1014.5 hPa | 0 mm | - | - | - |
| 1787697358 | 36.11° C | 45% | 1014.4 hPa | 0 mm | - | - | - |
| 1787696759 | 36.11° C | 45% | 1014.5 hPa | 0 mm | - | - | - |
| 1787696156 | 36.11° C | 48% | 1014.6 hPa | 0 mm | - | - | - |
| 1787695556 | 36.67° C | 45% | 1014.6 hPa | 0 mm | - | - | - |
| 1787694958 | 36.67° C | 44% | 1014.4 hPa | 0 mm | - | - | - |
| 1787694357 | 36.11° C | 45% | 1014.4 hPa | 0 mm | - | - | - |
| 1787693757 | 36.11° C | 45% | 1014.4 hPa | 0 mm | - | - | - |
| 1787693219 | 36.67° C | 45% | 1014.4 hPa | 0 mm | - | - | - |
| 1787692614 | 36.11° C | 46% | 1014.3 hPa | 0 mm | - | - | - |
| 1787691954 | 36.11° C | 44% | 1014.4 hPa | 0 mm | - | - | - |
| 1787691356 | 36.67° C | 44% | 1014.6 hPa | 0 mm | - | - | - |
| 1787690753 | 37.78° C | 41% | 1014.8 hPa | 0 mm | - | - | - |
| 1787690154 | 37.78° C | 41% | 1015 hPa | 0 mm | - | - | - |
| 1787689552 | 37.22° C | 43% | 1015 hPa | 0 mm | - | - | - |
* Rain latest hour (hover to see other rain measurements)
** Current wind speed in m/s (hover to see current wind gust speed)